Andover, NJ

12:23 AM EST on November 12, 2019 (GMT -0500)
Andover

Weather History for K12N - September, 2019

Change the Weather History Date:

Friday, September 20, 2019

  Actual Average (WUND) Record (WUND)
Temperature  
Mean Temperature 59 °F -  
Max Temperature 78 °F - - (-1)
Min Temperature 41 °F - - (-1)
Degree Days  
Heating Degree Days 6    
Growing Degree Days 9 (Base 50)    
Moisture  
Dew Point 48 °F    
Average Humidity 77    
Maximum Humidity 100    
Minimum Humidity 40    
Precipitation  
Precipitation 0.00 in - - ()
Sea Level Pressure  
Sea Level Pressure 30.25 in    
Wind  
Wind Speed 1 mph (SSW)    
Max Wind Speed 8 mph    
Max Gust Speed -    
Averages and records for this station are not official NWS values.
T = Trace of Precipitation, MM = Missing Value Source: NWS Daily Summary

Daily Weather History Graph

Daily Weather History Graph

Search for Another Location

Airport or City:

Astronomy

Sep. 20, 2019 Rise Set
Actual Time 6:44 AM EDT 6:59 PM EDT
Civil Twilight 6:16 AM EDT 7:27 PM EDT
Nautical Twilight 5:44 AM EDT 7:59 PM EDT
Astronomical Twilight 5:11 AM EDT 8:32 PM EDT
Moon 10:45 PM EDT (9/20) 12:49 PM EDT (9/20)
Length of Visible Light 13h 10m
Length of Day
12h 15m
Waning Gibbous, 65% of the Moon is Illuminated
Sep 20
Waning Gibbous
Sep 21
Last Quarter
Sep 28
New
Oct 5
First Quarter
Oct 13
Full

Hourly Weather History & Observations

Time (EDT) Temp. Windchill Dew Point Humidity Pressure Visibility Wind Dir Wind Speed Gust Speed Precip Events Conditions
12:54 AM 44.1 °F - 43.0 °F 96% 30.29 in - Calm Calm - N/A   Unknown
1:54 AM 44.1 °F 42.5 °F 43.0 °F 96% 30.28 in - SSW 3.5 mph - N/A   Unknown
2:54 AM 43.0 °F - 42.1 °F 97% 30.27 in - Calm Calm - N/A   Unknown
3:54 AM 43.0 °F - 41.0 °F 93% 30.27 in - Calm Calm - N/A   Unknown
4:54 AM 42.1 °F - 41.0 °F 96% 30.28 in - Calm Calm - N/A   Unknown
5:54 AM 42.1 °F - 39.9 °F 92% 30.29 in - Calm Calm - N/A   Unknown
6:54 AM 41.0 °F - 39.9 °F 96% 30.31 in - Calm Calm - N/A   Unknown
7:54 AM 43.0 °F - 43.0 °F 100% 30.32 in - Calm Calm - N/A   Unknown
8:54 AM 51.1 °F - 48.9 °F 92% 30.32 in - SE 3.5 mph - N/A   Unknown
9:54 AM 57.9 °F - 51.1 °F 78% 30.31 in - Calm Calm - N/A   Unknown
10:54 AM 64.9 °F - 48.9 °F 56% 30.29 in - SSW 4.6 mph - N/A   Unknown
11:54 AM 70.0 °F - 48.0 °F 46% 30.27 in - Calm Calm - N/A   Unknown
12:54 PM 73.0 °F - 48.9 °F 42% 30.24 in - Variable 4.6 mph - N/A   Unknown
1:54 PM 73.9 °F - 50.0 °F 43% 30.21 in - SSW 8.1 mph - N/A   Unknown
2:54 PM 75.9 °F - 51.1 °F 42% 30.19 in - SW 4.6 mph - N/A   Unknown
3:54 PM 77.0 °F - 51.1 °F 40% 30.18 in - Variable 6.9 mph - N/A   Unknown
4:54 PM 75.9 °F - 52.0 °F 43% 30.17 in - SW 4.6 mph - N/A   Unknown
5:54 PM 72.0 °F - 55.0 °F 55% 30.18 in - Calm Calm - N/A   Unknown
6:54 PM 63.0 °F - 57.0 °F 81% 30.19 in - Calm Calm - N/A   Unknown
7:54 PM 59.0 °F - 55.9 °F 90% 30.21 in - Calm Calm - N/A   Unknown
8:54 PM 57.0 °F - 55.0 °F 93% 30.22 in - Calm Calm - N/A   Unknown
9:54 PM 55.0 °F - 54.0 °F 96% 30.22 in - SSW 3.5 mph - N/A   Unknown
10:54 PM 53.1 °F - 52.0 °F 96% 30.21 in - Calm Calm - N/A   Unknown
11:54 PM 52.0 °F - 51.1 °F 97% 30.21 in - Calm Calm - N/A   Unknown